Theta_e
327 331 330 330 331 328 326 326 325 325 326 325 322 321 323 327 323 320 335 349 342 338 340 345 350 353 355 354 344 339 342 344 345 347 346 347 347 347 347 346 346 347 348 350 352 353 355 356 355 355 354 353 354 354 355 356 356 356 357 358 361 364 363 362 360 355 350 348 348 347 348 348 347 347 348 349 350 349 349 348 348 348 348 348 348 347 347
327 328 328 328 328 328 326 327 327 326 327 325 324 325 326 327 328 326 333 346 353 352 341 340 347 349 347 345 338 335 339 343 347 348 347 348 347 345 346 345 343 343 342 343 345 348 351 354 355 356 355 355 355 355 355 356 356 356 357 358 361 363 364 363 361 358 354 350 349 348 348 348 347 347 348 350 351 352 351 350 350 350 350 350 351 350 349
325 327 329 328 327 327 326 326 329 327 326 325 324 325 326 326 329 331 331 336 345 352 346 340 340 339 339 341 340 338 338 343 350 352 351 351 351 349 347 344 342 341 340 342 343 344 346 348 352 354 356 356 356 355 356 356 357 357 357 358 360 362 364 364 362 361 358 353 351 349 347 347 347 348 350 352 354 354 354 353 353 353 352 352 351 352 352
325 327 328 328 327 328 324 323 328 327 325 325 324 325 327 326 328 331 329 327 334 346 348 341 338 339 344 350 346 339 335 339 349 355 357 355 353 352 352 349 345 342 343 346 347 347 347 347 350 352 355 356 356 356 357 357 358 358 358 359 360 361 362 363 363 362 360 357 354 350 349 349 348 350 352 354 356 356 356 355 355 356 355 354 353 353 353
325 327 328 327 325 323 321 323 327 329 329 329 326 326 328 327 327 329 330 334 343 349 346 339 335 338 345 350 344 338 337 337 340 349 357 356 350 350 353 353 351 348 347 348 349 348 349 350 351 352 354 356 357 357 357 357 359 360 360 360 360 360 361 362 362 361 360 360 357 354 352 351 352 353 354 356 358 357 357 357 357 358 358 357 356 355 355
325 328 328 329 325 320 322 329 331 331 331 331 329 329 329 330 328 327 332 341 349 351 347 342 338 334 334 338 337 335 337 337 334 340 347 348 345 343 345 348 351 351 351 350 350 348 347 349 348 350 353 354 354 356 357 358 360 361 360 360 360 360 360 361 360 360 360 361 360 357 355 354 355 356 356 358 358 358 358 358 358 359 359 359 358 357 356
327 329 330 327 324 325 330 335 335 333 332 332 332 332 332 331 332 335 339 341 343 348 349 344 340 335 330 330 332 332 333 335 337 339 339 339 339 338 339 340 343 347 349 349 347 345 344 344 344 348 353 354 353 355 358 359 360 360 360 359 359 359 359 360 360 360 360 361 361 360 359 357 357 357 358 359 359 359 359 359 359 360 360 360 359 358 357
327 327 327 325 327 332 334 336 336 334 336 335 330 331 337 340 342 347 350 346 345 350 349 343 339 335 332 332 330 329 330 331 333 335 335 334 334 337 340 340 339 344 346 346 344 342 341 341 342 347 351 352 354 357 358 359 359 359 359 358 357 357 358 359 359 360 361 362 362 362 361 359 359 359 360 360 360 360 360 359 360 360 360 360 359 358 358
327 324 323 326 329 332 333 335 337 337 339 338 336 338 346 350 349 351 352 349 349 351 350 345 339 334 342 350 344 334 333 332 330 330 331 331 332 332 334 337 340 343 343 342 340 341 343 343 343 344 346 348 354 358 359 360 360 359 358 357 356 355 356 358 359 360 361 362 363 363 362 361 361 361 361 362 361 361 360 360 360 360 359 360 359 359 358
328 324 323 325 323 326 334 339 340 340 337 337 348 357 354 354 350 349 351 352 353 356 355 348 343 344 356 362 352 341 339 338 335 332 331 330 330 330 330 331 334 338 342 343 342 341 344 345 344 344 344 346 351 354 358 361 361 360 359 358 356 355 355 357 359 360 362 363 363 363 363 363 363 363 362 362 361 360 360 359 359 359 358 358 358 358 358
328 322 323 324 322 330 349 350 341 338 334 336 350 354 349 354 353 346 348 352 354 357 356 350 350 356 361 359 351 346 345 343 340 339 336 332 330 331 331 330 330 331 336 339 342 345 346 347 347 347 345 345 348 351 354 359 361 361 361 359 357 356 356 358 360 362 363 364 364 364 364 364 364 363 362 361 360 359 358 358 358 358 357 357 358 358 358
331 325 324 324 325 341 360 351 336 335 336 339 341 337 340 355 354 345 346 351 350 351 351 351 356 358 357 356 353 348 347 347 346 343 342 340 337 334 334 335 335 333 333 334 339 345 347 346 346 347 347 349 349 348 351 357 362 362 361 361 360 359 359 361 363 364 365 365 365 365 365 365 364 362 361 361 360 359 357 357 358 358 358 358 358 358 357
332 330 327 326 331 348 355 343 335 336 338 341 338 336 346 355 348 344 346 345 344 346 346 348 353 353 351 352 350 346 347 348 347 345 345 346 342 336 334 336 337 337 335 332 333 340 346 347 346 345 348 352 352 350 352 358 362 363 362 362 362 362 364 365 366 367 367 366 366 366 365 363 362 361 361 359 359 358 357 356 357 358 358 359 358 358 357
332 333 332 331 337 346 344 338 336 335 337 342 341 343 348 346 342 344 346 344 345 346 343 345 349 349 349 351 350 348 347 346 346 350 351 351 350 344 337 333 336 343 347 340 332 332 337 343 346 346 349 356 356 354 355 359 362 363 363 364 364 366 367 368 368 368 367 366 367 366 364 364 362 360 357 355 354 354 355 356 357 357 358 358 358 357 355
332 333 332 332 339 345 339 337 344 345 345 345 345 343 343 343 345 348 348 349 351 350 348 349 350 350 351 351 350 350 348 344 345 350 352 355 358 356 347 336 338 353 363 360 354 351 350 351 354 357 360 363 361 358 359 362 363 364 365 366 367 368 369 369 368 368 367 366 366 364 364 363 360 355 352 351 351 352 354 357 357 357 357 357 357 356 355
332 332 332 335 342 345 339 341 349 350 346 343 341 340 342 346 348 348 349 351 351 350 350 349 348 349 350 349 350 351 350 347 346 347 350 355 359 361 359 352 348 357 368 369 367 367 368 366 366 366 365 364 361 361 363 364 364 365 367 369 369 370 370 369 368 367 366 365 364 363 362 359 354 351 350 351 352 354 355 356 356 356 356 356 356 355 354
337 337 338 341 344 342 339 342 344 342 340 339 340 342 344 345 346 347 348 348 347 347 347 346 346 348 348 348 350 350 350 350 348 348 349 352 356 360 363 363 360 361 366 369 367 367 368 367 367 368 368 366 365 366 367 366 365 367 370 371 371 371 370 369 368 366 364 361 359 358 356 353 351 351 352 353 354 355 356 356 356 356 356 355 354 354 353
341 342 340 339 340 340 339 339 340 340 341 342 342 343 342 341 341 342 342 342 343 344 344 344 345 346 346 346 348 349 351 351 351 351 351 351 353 356 358 362 364 362 363 363 361 359 358 357 361 367 370 369 368 368 368 367 368 369 371 372 371 370 369 367 365 361 358 355 355 355 354 353 353 354 354 354 355 355 356 355 355 354 354 353 353 352 351
342 348 344 338 338 339 339 339 340 342 342 341 340 340 339 338 338 338 338 339 340 340 341 341 342 344 345 346 346 347 349 349 349 350 352 353 354 355 356 359 361 360 359 357 353 351 350 352 361 368 369 368 369 369 369 369 370 371 371 370 369 367 365 362 360 358 355 354 355 354 354 354 354 354 354 354 354 355 355 354 354 354 353 352 351 349 349
341 345 342 337 338 339 339 339 340 340 340 339 338 338 336 335 335 335 335 336 336 336 337 337 338 341 342 343 344 346 346 347 348 348 349 351 353 354 355 356 358 359 358 355 354 354 355 359 366 369 368 368 370 371 370 370 370 369 368 366 366 364 361 359 358 357 355 354 355 354 354 354 354 354 354 354 354 354 353 353 353 352 351 350 349 348 347
341 341 337 336 339 340 339 338 337 336 337 337 336 335 335 333 333 333 332 333 333 333 333 334 335 336 337 338 341 343 343 345 346 347 350 352 352 353 355 356 356 359 360 360 362 364 364 364 366 368 367 366 366 366 366 366 366 365 364 363 363 361 358 357 355 353 353 353 353 352 352 352 353 353 353 353 352 351 350 351 351 350 349 348 348 347 347
343 340 336 335 339 340 338 336 335 334 334 334 333 333 332 331 331 331 331 331 332 332 332 332 332 333 333 335 337 339 341 344 344 346 348 350 351 351 353 354 355 357 360 362 362 361 361 363 363 361 361 361 360 361 362 363 363 363 362 360 359 357 356 355 353 352 352 352 351 350 350 351 351 352 352 351 350 349 348 348 348 348 348 347 347 347 347
340 337 334 335 337 337 336 335 334 333 331 331 330 329 329 328 328 328 328 328 329 331 332 332 332 332 332 333 335 336 338 340 342 343 345 347 348 349 349 350 351 351 353 357 357 355 355 357 356 353 354 355 356 357 358 360 361 361 359 357 356 355 354 353 352 352 351 351 351 351 350 350 349 348 348 348 348 348 347 347 347 347 346 346 346 346 344
336 334 334 334 334 334 333 332 333 333 331 330 330 328 327 327 326 326 325 325 324 326 328 330 331 332 333 334 334 335 334 334 335 337 339 343 346 348 347 348 346 345 347 351 351 350 350 350 350 352 354 355 355 356 357 358 359 358 356 354 354 353 353 353 352 351 351 351 350 349 348 347 346 345 345 346 346 347 347 346 346 346 345 344 344 343 340
334 334 334 333 332 331 331 330 331 331 330 330 330 329 328 327 327 326 325 325 323 323 325 325 326 328 331 333 334 336 337 335 334 334 336 338 342 345 347 348 347 347 349 350 348 348 348 347 348 353 355 355 355 356 355 354 353 351 350 349 348 348 348 348 348 348 347 347 346 345 346 346 345 344 344 344 344 345 345 345 344 344 344 343 341 339 337
333 332 332 331 331 330 329 328 328 328 328 328 328 329 329 329 329 328 326 324 324 324 324 324 324 325 326 328 329 333 337 338 338 339 339 338 339 341 344 347 347 347 348 349 350 349 349 350 351 353 354 353 353 352 350 349 348 348 347 346 345 344 343 342 341 341 342 344 345 346 346 345 344 344 343 343 343 343 343 343 343 342 342 340 338 337 337
332 332 331 331 331 329 328 328 327 327 327 327 328 329 329 329 330 329 327 324 323 324 324 325 325 324 325 325 325 327 333 336 337 339 341 340 339 339 341 344 347 348 348 349 350 349 349 350 351 352 352 352 353 352 351 351 351 350 349 348 347 346 345 343 340 339 342 344 345 344 344 343 343 342 342 342 343 341 341 342 342 341 340 338 336 336 335
329 330 330 330 330 329 328 327 327 326 327 328 328 328 327 326 327 328 326 324 323 323 323 324 325 325 325 325 325 324 327 329 330 333 337 339 339 339 341 343 345 347 348 349 349 348 347 346 345 346 349 352 352 351 351 351 350 348 348 348 348 347 346 345 342 341 341 343 342 341 340 341 341 341 341 341 340 339 339 340 340 340 339 337 335 335 335
326 326 327 327 327 327 327 327 327 327 327 328 328 328 325 323 323 323 323 322 322 323 323 323 324 325 325 326 326 325 325 325 324 324 328 333 337 339 340 341 343 345 346 346 347 347 347 346 345 345 347 349 350 350 349 348 347 347 347 346 346 346 344 342 341 339 339 338 338 338 338 339 339 338 338 338 338 338 338 339 339 339 338 336 335 333 334
325 326 326 326 326 326 327 326 326 326 326 327 328 328 327 326 325 324 322 320 320 322 323 324 325 325 325 325 325 325 325 325 324 322 321 325 331 334 336 338 340 341 342 343 344 345 345 345 345 345 346 346 347 346 345 343 342 344 346 345 344 344 342 339 338 337 336 336 336 336 336 336 335 334 335 335 336 337 337 337 337 336 336 335 334 333 332
321 322 323 323 323 324 326 326 326 326 326 325 326 326 327 327 327 327 326 324 322 322 323 324 324 324 325 325 325 326 325 325 325 324 321 320 322 326 330 334 335 335 337 339 341 342 343 343 343 344 345 344 344 344 342 337 335 338 343 344 343 341 339 338 337 336 336 335 333 334 334 334 332 332 333 334 335 335 335 334 334 333 333 333 333 332 332
322 322 322 322 322 322 323 324 325 326 326 325 325 325 326 326 326 327 327 327 326 325 325 324 324 324 324 325 326 326 325 323 323 322 321 320 320 322 325 326 325 327 333 337 338 338 340 341 341 342 342 341 342 343 342 338 336 338 340 341 341 340 339 339 338 337 336 333 330 332 334 333 331 332 334 334 334 334 333 332 332 331 330 331 331 331 331
325 324 325 325 325 324 323 323 324 324 325 325 325 325 325 326 326 326 326 326 327 327 327 326 325 324 324 325 325 325 323 321 320 321 322 323 322 321 322 322 320 321 326 330 333 336 339 339 339 339 339 339 340 340 340 340 340 339 339 340 340 340 340 339 339 338 336 331 329 332 336 335 333 334 335 336 335 334 333 333 332 331 330 330 330 330 330
325 324 324 325 325 325 325 325 324 324 324 324 324 324 325 325 325 325 325 325 326 327 327 327 327 326 326 327 327 325 324 323 321 320 322 324 322 319 319 320 319 319 318 319 322 329 333 336 338 337 337 338 338 337 337 337 338 338 339 339 339 339 339 339 339 338 336 332 332 335 337 336 335 335 335 335 335 335 334 334 333 332 330 330 329 329 329
324 324 324 324 324 324 325 325 324 324 324 324 324 323 324 324 325 325 325 325 326 326 327 327 328 328 327 328 328 328 327 327 325 323 322 322 321 320 320 321 321 322 321 318 317 318 321 328 335 337 335 335 337 335 334 335 335 336 337 337 336 336 338 338 337 337 336 335 336 337 337 336 336 336 335 335 335 335 335 334 333 332 330 329 328 329 328
324 324 324 323 324 323 323 324 324 323 323 324 324 323 324 324 324 325 325 325 325 326 326 327 327 327 327 328 328 328 328 328 328 327 325 323 321 323 325 326 327 328 328 325 322 318 315 317 326 332 334 334 334 333 333 334 335 335 336 335 334 334 335 336 336 336 336 336 337 337 337 336 336 335 335 335 335 334 334 333 333 331 331 330 329 329 329
324 323 323 323 323 323 323 323 324 324 324 324 324 324 324 324 325 325 325 325 325 325 326 326 326 327 327 327 328 328 328 328 329 329 328 327 325 326 327 328 328 330 330 329 328 327 322 318 322 329 334 335 334 333 333 334 334 333 333 333 333 332 333 334 335 335 335 336 336 336 335 335 335 334 333 333 333 333 332 332 331 331 330 330 330 329 329
323 323 323 323 323 323 323 323 324 324 324 324 324 325 325 325 325 325 325 326 325 325 325 325 325 325 326 326 327 327 328 328 328 328 329 329 328 327 328 328 328 328 330 329 329 330 330 328 328 332 335 335 334 333 334 333 333 333 333 333 333 333 333 334 334 334 335 336 336 335 334 333 333 333 332 331 331 331 331 330 330 329 328 328 328 328 328
322 323 323 323 323 323 323 323 324 324 324 324 324 325 325 325 324 325 325 325 325 324 325 325 325 325 325 326 326 327 327 327 328 328 328 329 329 329 329 329 329 329 329 329 328 329 331 332 332 333 334 334 334 333 333 333 333 334 334 334 334 334 334 333 333 334 335 334 333 333 333 333 333 332 331 330 330 330 329 329 329 328 327 327 326 326 325
322 322 322 323 323 322 322 323 323 323 323 323 323 323 323 323 323 323 323 323 323 323 324 324 324 325 325 325 326 326 326 326 327 327 328 328 328 328 328 328 328 328 328 328 328 328 330 331 331 331 332 332 332 332 332 333 334 334 334 334 334 334 334 333 333 333 333 333 332 331 331 332 331 330 330 329 329 329 328 328 327 326 326 326 326 325 324
322 322 322 322 322 321 321 321 321 321 322 322 322 321 320 320 320 320 320 321 322 322 322 323 323 324 324 325 325 325 325 325 325 326 327 327 326 326 326 327 327 327 328 328 328 328 329 330 330 330 330 330 331 332 332 333 333 333 333 332 332 332 333 333 332 332 332 332 332 331 331 331 330 329 329 329 328 328 328 328 326 326 326 325 325 325 323
321 321 321 320 320 320 320 320 319 319 319 320 320 320 319 318 318 318 318 319 319 320 320 321 322 322 323 324 324 324 324 323 322 322 322 322 322 321 321 323 324 326 327 327 327 327 327 327 328 328 328 329 330 331 331 330 330 331 331 331 331 331 332 332 331 331 332 332 332 331 330 329 329 329 328 328 327 327 327 326 325 325 325 324 324 324 322
319 319 319 318 318 318 318 318 318 318 318 317 318 318 318 318 319 319 318 317 317 317 318 319 320 320 321 322 322 323 322 322 321 320 318 317 316 315 315 318 321 324 326 326 325 324 323 323 324 325 327 328 328 329 329 328 328 329 329 330 330 331 331 331 331 331 331 331 330 329 329 329 328 328 327 325 325 325 325 324 323 323 324 323 322 322 321
318 318 318 318 318 317 317 317 317 318 318 317 317 317 317 317 318 318 318 317 316 316 317 318 318 318 318 320 321 321 320 320 321 321 319 317 316 316 316 317 319 321 322 323 322 321 321 321 321 322 324 326 327 327 327 327 327 328 328 328 329 330 330 331 330 329 329 329 328 327 327 327 326 325 325 324 323 323 323 322 321 322 322 322 321 320 319
319 318 318 318 318 318 317 317 316 316 317 317 316 316 316 316 316 316 317 317 317 316 316 317 317 317 317 318 319 319 318 317 319 321 320 319 318 318 318 318 319 319 319 319 318 318 317 318 318 319 321 323 325 325 325 325 326 326 326 326 326 327 328 328 327 326 326 326 325 325 325 325 324 323 323 323 322 322 321 320 320 319 320 319 319 318 317
318 318 318 318 317 317 317 316 316 316 316 316 316 316 316 316 316 316 316 317 317 316 316 317 317 317 317 316 316 317 317 316 317 319 319 318 319 319 318 317 318 318 318 318 317 317 316 316 317 317 318 320 323 324 324 324 324 323 324 325 325 324 324 325 324 324 324 324 324 323 323 323 323 322 321 321 321 320 320 319 319 319 318 318 317 317 317
318 318 318 317 317 316 316 317 317 317 317 317 317 316 316 316 316 316 316 317 316 316 316 316 316 316 316 316 316 316 316 316 316 317 317 317 317 317 316 315 316 317 317 317 317 317 317 317 317 316 316 318 319 321 322 323 323 323 323 324 323 323 323 323 323 323 323 323 323 323 322 322 321 321 321 320 320 319 319 319 318 318 318 317 317 316 316
318 318 318 317 317 317 317 317 317 316 316 317 317 317 316 316 316 316 316 316 316 316 316 316 316 316 316 316 316 316 316 316 316 316 316 316 316 316 315 315 315 315 316 316 316 317 318 318 318 317 316 316 316 317 319 320 321 322 322 322 322 322 322 322 322 322 322 322 322 322 322 321 321 321 320 320 319 319 319 318 318 317 317 317 316 315 314
317 317 317 317 317 317 317 316 316 316 316 316 316 316 316 316 316 316 316 316 316 316 316 316 315 315 316 316 316 315 315 315 315 315 315 315 315 315 315 315 314 314 315 315 315 316 317 319 319 319 318 318 318 318 319 319 319 319 320 321 321 321 321 321 321 321 321 321 321 321 321 320 320 320 319 319 319 319 318 318 317 317 317 316 316 314 314
317 316 316 317 317 316 316 316 316 316 316 316 315 316 316 316 316 316 316 316 316 316 316 316 315 315 315 315 315 315 315 315 315 315 315 315 315 315 315 314 314 314 314 314 315 315 316 317 318 319 319 319 319 319 319 319 319 319 319 319 320 320 320 320 320 320 319 319 320 320 319 319 319 319 319 319 319 318 317 317 317 316 315 315 314 314 314
317 316 316 316 315 315 315 315 315 315 315 315 315 316 316 315 314 314 314 315 315 315 315 314 314 314 314 314 315 315 315 315 315 314 314 314 314 314 314 314 313 313 313 314 315 315 315 316 316 317 317 318 318 318 318 319 319 319 318 318 319 319 319 319 319 319 319 319 319 319 319 318 318 318 318 318 318 317 316 316 316 315 315 314 314 314 314
316 316 315 314 314 313 314 314 313 313 313 314 314 314 314 313 313 312 312 312 313 312 312 312 313 313 314 314 314 313 313 313 313 313 313 313 313 313 313 313 313 313 314 314 314 314 314 315 315 315 315 316 316 316 317 317 318 318 318 318 318 318 318 318 318 318 319 319 319 318 318 318 318 318 317 317 317 316 316 315 315 315 315 315 314 314 314
Wind_Speed
18 15 15 15 10 8 11 13 15 17 18 17 13 12 11 8 6 7 7 7 9 10 9 7 7 7 6 7 11 15 17 17 18 22 30 37 40 41 43 44 45 43 41 42 45 47 48 47 47 48 48 48 49 49 49 48 48 49 48 48 49 49 50 51 52 52 51 51 51 49 48 47 46 46 45 45 45 44 44 43 43 43 42 42 41 40 40
16 18 19 18 15 11 10 13 15 16 19 20 17 14 11 10 10 9 8 8 8 8 7 7 7 7 5 3 8 14 16 21 24 23 25 29 32 35 40 42 43 43 41 39 40 43 44 44 46 47 48 49 49 50 49 49 49 49 49 49 49 49 51 52 51 51 50 51 51 50 49 48 47 47 46 46 46 45 45 44 43 43 43 43 42 42 42
12 16 18 17 18 16 11 10 12 14 17 19 19 16 12 9 9 9 11 10 8 6 7 8 6 7 6 1 2 7 8 16 26 28 27 26 27 28 31 36 39 41 41 38 37 39 40 39 41 45 48 49 50 50 50 50 50 50 50 50 50 51 52 52 51 50 50 51 51 51 50 49 48 47 47 46 45 45 44 43 42 42 43 43 43 43 42
6 11 16 19 18 17 15 14 13 13 12 13 15 14 12 10 9 8 10 9 7 6 7 7 7 5 7 5 5 8 9 9 17 26 29 29 28 28 30 35 39 41 42 41 38 38 38 38 39 43 47 49 51 51 51 52 52 51 51 51 51 52 52 51 50 50 50 50 51 51 51 50 49 47 46 45 44 44 43 43 41 41 42 42 43 42 42
2 4 10 16 16 14 14 14 12 10 8 7 10 12 13 14 11 6 6 8 7 6 7 8 9 6 5 7 9 12 14 13 12 19 28 34 36 36 35 37 42 44 45 44 42 40 40 40 41 42 45 49 51 52 53 53 52 51 51 52 52 52 52 52 51 51 50 50 49 50 50 50 48 47 46 45 44 44 43 42 41 41 41 41 41 41 41
2 4 6 5 9 11 9 6 7 9 9 9 8 7 8 11 12 8 6 6 5 5 8 10 10 11 11 12 11 10 12 16 18 19 22 25 30 34 36 37 41 44 45 44 42 41 40 41 40 41 44 47 47 49 53 53 52 52 52 53 53 53 53 53 52 51 50 49 48 48 48 48 48 47 46 45 44 43 42 41 41 41 41 41 40 40 40
2 1 3 4 5 7 3 3 5 7 8 9 8 7 6 5 7 6 3 2 3 3 1 2 4 9 14 14 11 7 7 12 16 18 19 17 17 24 31 36 38 42 44 44 43 40 39 39 39 41 45 46 46 48 51 52 52 53 53 53 53 53 53 53 53 52 51 49 47 46 46 46 46 46 45 44 43 43 42 42 41 40 40 40 40 40 40
3 2 3 5 4 3 3 1 1 3 4 6 6 5 6 7 3 3 6 6 7 8 7 8 10 5 1 4 6 8 9 12 12 12 14 14 14 16 23 32 39 43 44 43 40 38 37 38 40 43 45 45 46 49 50 51 52 53 53 53 53 53 53 53 53 52 51 49 47 45 45 44 45 45 44 43 42 42 41 40 39 38 37 38 39 39 40
3 3 4 4 3 2 2 2 1 2 1 1 2 3 4 8 7 5 5 6 8 9 8 12 14 11 8 6 8 10 9 9 11 13 15 15 15 14 14 20 30 38 41 38 35 35 36 38 40 41 43 44 46 48 48 50 51 51 52 53 54 53 52 52 52 52 51 49 47 45 44 44 44 43 42 41 40 40 40 40 39 38 37 37 37 38 38
5 4 4 4 4 4 3 1 2 4 6 5 6 7 3 7 7 6 6 7 9 8 7 11 12 9 7 4 8 17 22 18 16 17 18 21 25 27 25 21 20 25 31 34 33 33 36 40 42 41 42 44 45 46 48 49 50 50 51 52 53 53 51 50 51 51 50 49 47 45 44 43 42 41 39 39 39 39 39 40 40 40 39 37 36 36 36
5 7 6 5 4 4 3 2 3 6 7 6 6 7 3 5 8 8 8 9 8 7 7 9 9 9 6 2 7 20 28 27 26 27 23 22 25 27 27 27 27 26 27 29 31 35 37 39 41 42 43 44 45 46 47 49 50 50 50 51 52 51 50 50 50 50 49 48 46 45 43 41 39 36 35 36 36 36 37 38 39 40 39 37 36 35 33
5 6 6 4 2 2 4 1 6 9 7 5 6 4 2 4 7 12 11 11 10 10 11 11 8 7 5 4 11 22 28 28 27 26 24 24 23 20 19 20 25 29 31 31 32 37 41 40 38 40 43 45 46 46 46 47 50 50 50 50 50 48 47 48 49 48 47 46 45 43 41 37 34 32 33 34 34 34 34 35 37 37 37 36 35 33 32
5 4 3 3 2 2 4 4 6 7 8 6 5 4 5 2 9 16 16 14 14 15 15 12 8 8 10 11 15 20 22 26 28 25 22 20 19 19 20 20 22 26 31 37 37 37 39 40 37 38 43 46 46 45 45 47 48 49 49 48 46 44 45 47 48 47 46 45 43 40 36 32 31 31 31 32 32 32 31 33 34 35 34 33 32 31 30
4 3 2 1 1 3 1 3 4 5 5 2 4 5 3 6 12 17 18 18 17 16 16 14 12 12 14 14 15 18 19 21 24 22 19 15 12 12 17 19 21 24 27 35 40 39 38 40 41 41 45 48 48 45 45 46 47 46 46 45 44 43 44 45 46 45 43 41 37 34 32 31 31 31 30 29 29 28 29 31 32 32 32 31 29 28 28
3 3 3 3 3 4 1 2 1 2 2 4 7 8 11 14 16 16 17 19 18 17 17 17 17 16 15 14 14 16 17 18 19 17 17 16 13 9 12 16 18 17 16 18 22 26 30 36 43 45 45 45 45 44 44 44 43 43 43 43 43 43 44 43 42 40 37 34 32 32 33 32 31 30 28 27 26 27 29 31 30 30 30 28 27 26 26
1 1 1 4 4 3 2 5 2 3 7 10 13 13 11 14 17 17 19 20 21 19 18 19 19 19 17 16 16 16 16 17 16 14 15 16 14 9 7 9 11 12 10 8 8 13 18 23 30 37 42 43 43 43 42 41 41 40 41 42 43 42 42 40 37 33 31 30 31 33 33 31 30 29 27 26 27 28 29 29 28 28 28 27 25 24 24
2 1 5 3 4 8 13 15 13 13 17 19 22 21 18 18 20 20 21 22 22 22 21 21 22 21 19 18 17 17 16 16 15 13 13 14 13 11 7 4 5 8 10 8 6 9 12 13 15 22 32 39 42 40 39 40 40 40 41 43 43 42 39 35 32 31 30 30 31 32 31 31 30 29 27 27 28 28 27 26 25 25 26 25 23 22 22
5 5 11 10 4 15 21 22 22 21 21 22 25 27 25 23 23 25 25 25 25 25 25 25 23 21 18 18 19 17 15 14 14 12 11 12 11 11 8 5 2 3 7 9 8 7 8 10 15 21 25 29 33 36 38 40 41 42 44 44 42 39 36 33 32 32 32 32 32 31 30 29 29 28 27 27 27 26 24 23 22 22 23 23 22 21 21
5 3 10 12 4 16 21 24 26 25 24 26 29 30 28 26 27 29 29 28 29 29 29 28 26 25 23 22 21 20 18 16 16 14 12 11 10 9 7 4 3 4 6 8 10 11 10 14 22 27 28 27 30 35 38 41 43 44 45 43 40 37 35 35 34 34 34 34 33 30 29 28 28 27 26 24 24 22 21 21 21 21 22 22 21 21 22
3 2 10 15 8 21 26 24 24 24 27 30 30 30 30 29 29 30 30 30 31 32 31 30 30 32 31 29 26 24 22 19 16 14 13 12 10 7 5 2 3 8 10 12 15 17 18 20 24 29 31 31 31 34 37 41 44 44 42 40 39 37 36 36 35 35 35 35 33 32 30 29 28 26 24 22 21 20 20 20 21 21 20 20 20 20 21
4 3 12 18 9 17 23 24 26 26 29 31 29 28 30 30 30 32 32 31 31 32 31 31 33 35 34 32 30 29 27 23 18 14 12 12 11 8 6 4 2 6 11 14 16 18 20 21 23 28 32 32 30 33 36 39 41 42 40 38 38 37 36 36 35 35 34 33 32 31 30 28 26 24 22 21 19 18 19 19 19 18 18 18 18 18 19
2 1 8 14 6 7 11 18 25 27 28 31 30 28 28 28 29 31 33 33 33 33 32 32 35 35 34 33 33 32 31 29 24 19 14 12 12 11 9 7 7 7 10 14 16 17 20 24 24 25 28 28 27 30 33 35 36 39 39 38 37 36 35 35 34 33 32 30 28 26 25 24 23 21 20 19 17 16 16 16 16 16 15 15 15 16 17
2 2 11 15 7 5 12 18 22 24 26 30 30 29 29 29 29 30 32 33 33 33 32 32 34 35 34 34 36 36 33 31 29 27 23 18 17 17 15 11 9 9 8 11 14 15 17 20 20 20 21 22 21 24 28 30 32 36 37 37 36 34 33 32 31 29 28 26 23 21 19 18 17 17 18 19 18 16 16 15 15 14 13 13 13 13 13
2 3 7 8 6 11 16 21 21 21 25 29 29 27 27 27 28 30 31 31 31 30 29 29 30 31 31 33 36 37 36 34 32 31 29 24 21 22 22 18 12 10 10 11 12 14 16 17 19 20 21 19 18 21 25 28 30 33 35 35 34 32 30 29 27 24 23 21 19 18 17 15 13 14 16 18 19 18 16 14 12 12 12 12 11 9 8
3 5 4 7 12 16 18 21 21 20 22 27 28 26 25 25 25 27 28 27 27 27 27 26 26 26 27 29 31 32 32 34 35 35 33 31 27 25 25 24 19 17 19 21 22 22 20 18 20 22 23 22 22 24 25 26 27 28 28 29 29 28 26 24 21 19 18 17 17 16 16 15 14 13 14 16 16 16 15 13 11 11 11 12 12 11 12
10 10 13 14 14 15 17 17 18 17 17 20 22 22 22 22 22 23 23 23 23 23 23 23 23 23 23 25 26 26 26 26 30 33 35 35 35 31 27 25 22 20 20 23 25 25 23 22 23 25 25 25 25 26 25 23 23 22 21 21 21 20 19 19 17 16 16 15 15 15 14 14 14 14 13 12 12 12 12 13 13 12 13 14 15 15 15
13 11 13 14 13 14 15 15 16 16 16 17 19 19 18 18 19 19 20 21 21 21 20 19 19 19 21 22 23 23 22 22 25 30 32 33 35 36 33 30 26 22 22 24 25 24 22 22 24 25 25 24 22 22 22 21 20 18 18 17 16 15 15 15 14 14 14 14 14 14 14 13 13 12 11 11 10 10 10 12 15 15 16 17 17 16 15
15 13 15 15 13 14 17 18 19 19 18 18 18 18 18 17 18 17 18 18 19 20 20 19 17 16 17 18 19 19 20 20 22 25 27 28 30 32 32 31 29 27 27 28 27 24 22 20 20 20 21 21 19 18 18 17 16 16 16 16 15 15 15 14 12 11 12 12 12 11 12 12 12 12 11 10 10 11 11 13 15 16 18 20 19 18 16
20 20 24 25 21 19 20 21 21 21 20 19 19 18 19 21 22 21 19 17 16 17 19 20 18 16 16 16 16 16 16 17 19 20 19 20 23 26 28 28 27 26 26 27 27 25 23 21 20 19 17 17 16 16 15 14 13 14 16 16 16 16 16 13 11 10 10 11 11 11 13 14 14 12 10 9 10 12 14 15 15 16 18 21 21 19 16
19 21 24 26 24 24 24 23 23 22 20 20 20 19 19 21 23 23 21 19 17 15 14 15 16 15 16 16 15 13 13 13 14 14 13 13 15 19 22 23 23 25 26 25 24 22 21 20 20 19 17 15 14 13 12 11 10 11 13 14 14 14 13 12 10 8 9 12 15 16 18 17 15 13 12 12 13 15 15 15 15 15 16 20 21 20 16
20 22 24 24 23 24 24 24 23 22 20 20 20 20 19 20 21 21 20 21 20 18 15 13 13 13 14 16 16 14 12 11 10 9 10 10 10 12 16 19 21 23 24 24 21 17 16 17 17 17 16 14 12 10 9 9 10 10 12 14 14 13 11 10 9 8 9 13 16 18 19 18 16 15 15 16 16 16 16 14 13 14 15 18 21 20 17
18 20 20 20 21 22 23 23 22 21 19 19 19 20 19 19 19 18 17 18 19 19 19 18 17 15 13 13 13 13 12 12 11 10 10 10 8 7 9 12 15 16 17 20 20 16 13 14 15 14 12 11 12 11 9 8 10 13 15 16 16 14 11 10 9 8 9 12 15 17 17 16 16 17 17 17 17 16 14 12 12 13 15 18 19 18 16
14 13 12 14 18 20 21 21 21 20 19 19 19 19 18 18 18 17 16 15 16 17 18 19 19 18 16 14 12 10 9 10 10 10 10 10 9 7 4 5 8 10 10 12 14 13 11 11 11 10 9 8 10 12 11 10 12 14 15 14 14 12 11 11 10 8 9 12 15 16 16 16 17 18 18 18 18 16 14 12 10 10 12 15 16 15 13
15 14 14 16 18 18 17 17 17 18 18 19 19 18 18 18 18 17 16 16 16 16 15 14 14 15 17 18 17 14 12 13 13 11 8 8 10 10 7 4 5 7 6 4 6 8 9 9 8 8 7 6 7 9 10 9 8 11 12 12 11 11 11 10 10 9 11 14 16 17 18 18 19 20 21 20 19 17 15 13 10 10 11 13 13 11 11
16 17 18 19 18 17 16 15 15 15 16 16 17 17 17 17 17 17 16 16 15 15 15 15 13 13 14 16 18 18 18 17 17 15 11 8 9 12 11 7 5 6 4 2 4 5 6 6 5 4 2 3 6 7 7 7 7 8 10 9 8 9 11 11 11 12 14 16 17 18 19 20 20 21 21 20 19 17 15 13 11 11 12 12 11 11 12
17 19 19 18 17 17 17 17 17 16 16 16 16 15 16 16 16 16 16 15 15 14 15 16 17 17 15 15 15 16 17 16 16 16 14 11 9 10 10 9 8 8 7 4 2 2 3 2 3 3 3 2 4 5 5 6 8 9 9 7 6 9 11 11 11 14 16 16 17 18 17 17 17 17 16 17 17 16 15 14 13 13 13 11 10 12 13
17 18 18 17 16 17 17 17 17 16 16 16 16 16 15 15 15 15 16 16 16 15 14 14 15 16 16 16 15 15 15 14 13 14 13 12 9 8 8 9 9 10 10 9 7 5 4 3 2 2 3 4 4 4 5 6 6 6 7 8 9 11 12 13 14 16 16 17 18 17 16 16 17 16 15 15 16 16 16 15 15 14 13 11 11 12 12
17 17 17 17 17 18 18 17 17 17 17 17 17 17 16 15 14 14 15 15 15 15 15 16 16 15 15 14 15 15 14 13 12 11 11 10 9 10 11 12 10 9 10 10 9 7 6 3 3 4 3 3 4 5 6 7 7 8 9 10 12 14 16 17 17 17 17 18 18 16 15 17 20 20 17 16 16 16 15 14 13 13 12 11 11 11 11
18 18 18 19 20 21 20 20 19 18 18 18 17 17 17 17 16 17 17 17 16 15 15 16 17 18 18 17 17 18 16 13 12 11 11 10 11 12 14 14 13 11 10 9 7 7 7 6 5 7 6 4 5 6 7 8 9 10 10 10 11 14 16 15 14 17 18 18 17 16 17 19 20 20 18 17 16 15 14 13 12 12 11 10 10 10 9
20 20 20 20 21 21 21 21 20 19 19 20 20 20 20 20 21 21 20 19 18 17 16 16 17 18 18 18 18 19 18 16 14 13 12 12 13 14 14 14 13 11 11 10 8 7 7 6 5 5 5 3 3 5 7 7 6 7 8 8 9 12 12 11 12 15 17 16 15 16 17 18 18 17 16 15 15 16 15 13 11 10 10 9 10 10 8
21 21 21 21 20 20 20 20 20 19 19 19 20 21 21 21 21 21 19 17 17 17 17 17 16 17 17 17 17 17 18 18 17 16 14 14 14 15 15 14 12 11 10 9 8 6 6 6 5 4 5 5 6 7 9 8 6 6 7 6 4 5 8 10 12 13 14 14 15 16 15 15 15 16 15 15 16 17 17 15 11 9 9 9 10 11 10
20 20 20 20 20 19 18 18 19 19 19 18 17 17 17 17 18 19 18 16 15 16 16 17 17 17 17 17 16 15 16 18 19 19 19 18 18 17 16 14 11 9 7 7 8 8 7 6 6 5 6 7 8 8 9 8 6 6 9 9 7 6 8 8 9 9 11 13 15 14 13 14 16 16 15 15 15 15 14 14 12 12 11 10 10 12 11
19 19 19 19 19 19 18 17 17 17 17 16 16 15 14 13 13 15 16 16 16 16 16 17 18 17 17 16 16 16 17 18 18 18 20 21 21 20 18 15 12 10 8 7 9 10 9 8 7 7 8 8 9 10 9 7 4 4 6 7 8 9 9 10 11 11 11 13 13 13 14 17 17 15 13 11 11 11 12 12 11 12 13 11 10 11 11
17 16 16 16 16 16 17 17 17 16 15 14 14 14 15 16 15 14 13 15 18 20 19 17 17 17 17 16 16 17 17 16 14 13 15 19 21 22 20 18 17 17 16 14 13 13 11 10 8 7 7 8 9 10 9 7 5 4 4 4 4 6 8 10 11 12 11 11 11 10 12 15 15 14 12 11 10 11 12 12 10 11 13 12 11 10 9
15 14 14 14 14 14 14 15 16 15 14 13 14 14 15 17 18 17 14 13 16 19 19 18 17 17 18 17 16 15 15 16 15 14 14 17 20 21 21 19 18 18 19 18 17 16 16 14 12 8 5 7 8 8 8 7 4 3 4 3 2 3 4 5 6 6 6 7 8 8 9 11 12 12 11 11 12 13 13 12 11 11 12 12 11 10 9
14 13 14 14 14 14 14 14 14 14 14 13 14 14 14 15 18 19 16 14 14 17 19 19 17 17 17 16 15 14 14 15 16 17 17 18 18 17 18 18 17 16 17 17 17 17 17 18 16 13 8 5 5 5 6 7 5 3 4 3 2 3 5 5 5 6 5 4 4 7 8 9 11 12 12 12 12 14 13 10 10 12 12 12 12 11 11
15 15 15 15 14 14 15 14 15 15 16 16 15 14 13 14 17 20 19 17 16 17 18 18 18 17 16 15 15 15 16 16 16 17 17 16 15 15 17 18 17 16 16 16 17 17 16 16 16 16 13 8 3 2 3 4 4 3 3 2 2 2 2 3 4 6 7 6 6 8 9 9 10 13 14 12 12 13 11 9 10 12 12 12 12 13 12
18 18 18 17 16 14 14 15 16 17 18 20 20 17 15 14 15 16 17 17 17 16 16 15 15 16 16 14 13 13 14 15 16 15 14 13 14 16 17 16 14 14 14 15 16 16 15 13 14 16 16 13 9 7 6 6 5 3 2 3 4 3 3 2 2 3 7 9 9 9 10 9 9 9 10 10 11 12 13 12 13 13 12 12 13 13 11
17 17 17 18 18 16 15 16 18 18 18 19 20 19 17 16 15 16 16 16 15 15 15 13 12 13 16 16 15 13 12 13 14 14 12 10 11 14 15 15 14 13 12 12 13 15 15 14 13 14 14 13 11 10 9 10 10 7 2 1 2 2 3 5 4 2 2 4 5 6 7 8 8 7 7 9 12 13 14 14 14 14 14 14 16 15 13
16 17 18 20 21 21 19 18 19 18 18 18 17 16 16 17 18 18 18 16 14 13 14 13 11 12 15 17 15 13 13 13 13 12 11 9 8 9 11 12 13 13 11 10 11 13 15 15 13 11 10 11 11 9 7 7 8 7 5 3 2 3 1 4 6 5 3 3 4 5 6 8 9 9 10 11 12 13 13 14 15 16 16 16 15 15 15
18 19 20 21 21 21 20 20 19 18 17 17 15 13 15 18 18 18 18 17 15 14 14 14 13 14 15 15 14 12 10 10 10 12 12 10 8 8 9 11 12 12 11 9 9 11 13 14 12 11 10 11 11 10 8 5 3 3 4 4 3 3 3 2 3 4 4 4 5 5 6 7 9 11 11 12 13 13 12 12 14 16 17 16 15 15 15
18 18 18 18 17 16 17 19 18 18 18 18 16 14 14 16 17 17 17 16 15 14 14 14 13 13 13 13 14 15 14 13 11 11 11 10 9 10 11 12 12 11 9 7 8 11 12 10 9 10 11 11 11 12 12 10 6 3 2 2 3 3 3 3 4 5 5 7 9 9 8 7 7 8 8 9 10 10 9 8 9 11 13 14 15 16 16
Wind_Direction
214 220 236 250 248 217 194 187 193 200 210 227 232 225 226 208 190 234 240 194 203 234 237 216 208 209 198 190 197 183 149 143 169 174 174 181 184 183 184 186 188 190 193 195 198 201 204 205 204 204 205 206 207 208 210 211 211 212 214 216 216 215 217 219 219 220 220 220 220 221 222 222 223 224 224 223 224 226 227 228 231 233 236 237 237 238 239
209 217 230 244 251 245 215 199 201 198 200 214 231 240 235 220 220 226 216 205 216 235 238 223 204 188 167 158 204 196 163 147 158 165 167 177 182 182 184 186 189 193 196 197 201 204 205 205 206 205 206 207 207 209 210 210 211 211 212 215 216 215 216 219 220 220 220 220 220 221 221 222 224 225 224 223 223 224 227 229 230 232 234 236 237 238 238
205 210 222 236 247 252 246 232 221 208 201 201 212 233 240 232 233 225 215 220 229 236 245 239 201 153 136 124 191 202 189 157 154 159 164 172 177 180 185 190 194 197 199 201 206 207 207 207 208 208 209 209 210 210 210 211 211 211 211 214 216 217 218 219 220 220 220 220 220 221 222 223 224 224 224 223 222 223 226 228 229 231 232 235 237 238 238
213 206 212 220 237 254 258 255 245 228 216 201 198 211 224 229 234 221 213 225 239 241 236 236 231 169 144 169 180 184 208 190 161 160 162 164 171 180 187 193 198 202 203 206 210 211 211 211 210 211 213 212 211 211 211 212 213 211 211 213 216 218 218 218 219 221 221 220 220 221 221 222 223 223 222 221 220 222 225 227 229 229 231 234 237 238 239
231 235 224 210 213 237 249 247 243 239 244 233 206 198 204 216 222 212 207 214 215 214 200 205 235 232 171 183 193 188 201 213 199 180 170 167 174 184 191 194 197 201 204 207 210 214 215 214 213 214 215 214 213 214 214 214 212 210 210 213 215 217 218 217 219 221 221 220 220 220 221 221 221 221 220 219 219 221 223 226 228 229 231 234 235 238 239
189 258 275 234 205 222 232 220 221 235 247 249 235 215 209 215 213 204 206 215 200 191 196 196 208 221 223 221 210 195 204 216 217 207 191 182 183 190 197 199 199 201 204 206 208 211 214 215 215 216 216 216 218 219 217 213 211 210 211 212 214 216 216 217 218 220 221 221 220 220 220 220 219 219 219 219 219 220 222 224 227 229 231 232 235 238 239
136 186 275 279 242 235 220 143 184 229 244 250 261 271 283 267 225 190 130 103 111 108 194 234 213 218 227 228 219 212 224 221 211 206 207 209 208 205 208 211 210 207 206 207 208 210 212 214 216 216 216 217 219 219 216 212 210 211 211 211 214 215 216 216 216 218 219 219 219 219 219 218 218 218 218 218 217 218 220 223 226 229 231 232 235 237 238
135 132 205 231 250 298 335 341 315 310 276 254 255 274 329 359 18 105 94 87 84 74 54 32 31 32 333 272 259 254 250 241 233 228 231 238 241 228 218 217 216 213 210 209 210 213 215 215 216 216 216 216 217 217 214 212 210 210 210 210 213 215 215 214 214 215 216 216 216 216 216 216 216 216 217 217 216 217 219 221 224 228 232 233 234 236 238
146 178 221 251 303 320 277 268 355 35 355 248 154 128 17 6 23 62 82 72 65 67 56 37 34 40 44 18 346 341 327 282 263 262 261 265 271 268 251 233 222 217 218 220 219 218 217 217 217 217 216 216 216 215 213 211 210 209 209 210 213 215 215 214 212 212 213 213 213 214 214 214 214 214 215 216 216 216 218 220 222 226 230 233 235 237 237
156 186 224 259 262 239 220 281 23 73 72 70 102 105 46 341 354 33 68 62 51 61 54 30 30 44 50 21 347 355 354 345 334 318 292 274 271 271 271 264 245 227 223 223 223 222 220 218 217 216 215 214 214 214 213 211 209 208 208 210 213 214 214 213 211 209 209 211 212 212 212 212 212 212 214 215 216 217 219 222 224 225 228 231 234 236 236
172 189 207 218 222 230 251 308 17 59 69 73 85 79 34 310 330 8 54 64 47 46 45 33 41 52 44 350 332 349 352 351 352 349 331 299 279 273 270 267 263 256 242 231 227 226 224 222 220 217 215 214 213 213 213 211 208 207 207 209 212 213 213 211 208 206 206 208 209 209 209 209 210 213 216 217 217 218 221 223 225 225 226 228 229 232 235
156 178 210 218 179 224 240 199 60 50 44 63 89 92 248 278 352 18 43 60 51 42 40 40 52 57 33 349 340 348 353 357 360 357 345 327 311 303 301 293 285 274 260 246 234 228 227 228 226 221 217 214 212 212 212 210 207 206 207 208 210 211 209 206 204 202 202 204 206 207 208 209 212 216 218 218 218 218 218 220 223 224 225 225 226 228 231
141 146 191 199 144 194 206 143 95 63 40 53 108 162 227 282 34 37 43 46 43 45 48 50 49 27 12 3 352 348 354 1 2 354 342 333 320 307 308 314 314 303 279 257 245 238 234 232 231 229 223 215 212 211 210 207 206 206 206 207 207 206 203 200 198 198 199 202 204 206 208 212 215 217 218 219 218 217 214 215 219 222 223 224 224 225 226
141 120 128 150 298 305 1 89 123 112 76 80 162 150 108 74 59 49 45 40 35 39 48 53 49 32 17 7 357 351 348 353 1 359 351 350 346 318 303 300 307 311 293 264 250 246 242 236 233 232 224 214 209 208 207 205 205 204 203 203 203 201 197 194 193 194 197 199 202 205 210 214 215 215 216 216 215 213 212 212 214 217 220 222 222 221 222
140 132 127 149 222 264 313 55 27 74 114 175 159 114 83 77 73 64 54 45 39 42 48 48 47 42 33 20 4 354 345 343 352 360 359 5 14 355 317 302 297 298 293 271 252 245 240 233 227 221 213 205 203 204 204 202 201 200 200 199 197 194 191 188 188 190 193 197 202 208 211 212 214 214 211 206 204 204 205 206 209 213 217 218 217 218 219
63 133 187 182 201 234 142 132 121 86 109 120 113 101 83 74 74 71 62 51 46 51 54 46 40 35 29 22 10 2 357 350 345 347 355 5 15 12 336 307 291 272 256 247 234 222 218 216 214 210 205 203 203 202 200 197 196 195 194 191 188 186 184 183 184 187 192 199 204 206 207 208 209 209 202 195 193 195 198 201 205 209 213 215 215 216 217
348 295 294 270 148 111 104 113 112 98 97 97 93 89 80 71 70 70 66 59 53 54 54 48 40 31 23 19 15 12 12 6 356 349 347 352 1 6 359 331 278 249 225 210 211 210 200 198 205 210 208 204 200 196 192 191 191 189 185 182 180 179 177 178 183 189 194 198 199 199 200 202 201 198 193 189 191 194 196 199 202 204 208 212 213 214 215
340 310 312 319 97 109 102 103 100 91 89 90 89 87 81 75 73 72 70 67 61 58 57 54 47 38 30 26 24 22 20 17 14 10 357 349 352 355 354 352 321 250 214 209 224 230 212 208 219 222 213 202 195 191 187 187 186 182 178 176 173 173 176 182 189 192 189 187 188 189 191 191 190 189 188 189 192 195 196 199 202 205 207 208 210 212 214
353 328 314 320 54 98 93 95 97 91 88 89 89 89 85 80 77 74 72 69 66 62 61 57 51 46 43 38 34 31 28 25 26 28 25 18 12 6 1 347 296 249 207 198 205 208 207 211 215 216 211 200 194 190 185 181 179 176 173 172 172 176 181 183 184 182 180 179 180 180 179 180 182 186 189 191 193 196 198 201 204 205 207 208 210 211 212
351 344 311 316 33 83 83 87 92 91 91 91 89 89 87 83 79 76 73 70 68 63 60 58 55 52 48 43 40 37 34 33 32 35 46 53 50 44 44 32 237 211 195 188 191 194 199 204 205 203 199 190 182 178 174 172 173 172 171 171 173 174 175 174 173 173 175 176 175 173 174 177 181 184 188 191 194 197 200 204 206 207 210 213 215 213 213
333 325 307 310 359 74 78 80 83 86 92 93 91 89 87 84 81 79 75 73 71 68 64 61 60 58 53 49 47 44 40 39 39 42 56 66 66 73 89 82 98 173 176 175 179 180 177 175 175 180 182 178 169 165 164 163 164 166 164 163 164 164 164 165 166 169 171 172 172 172 174 177 179 181 185 189 194 198 201 205 208 212 217 221 223 222 220
307 300 298 303 327 59 63 75 85 88 91 94 92 88 86 83 82 82 79 76 73 70 68 66 65 62 56 52 53 51 47 45 45 49 62 76 76 77 86 91 96 121 144 152 154 151 149 149 148 153 159 158 153 155 158 157 157 158 156 154 154 155 158 161 164 165 166 167 169 172 174 176 179 181 185 191 196 199 201 203 206 212 219 224 228 230 230
175 276 299 303 313 28 34 52 78 89 91 91 89 86 86 85 84 83 81 77 75 72 68 66 67 65 61 57 57 55 51 49 46 44 47 58 72 77 75 75 89 101 117 139 145 137 135 140 137 129 134 138 139 145 151 153 154 155 153 151 150 152 157 162 163 163 164 164 167 169 171 174 179 185 190 195 197 197 200 203 203 206 210 216 226 233 233
201 234 293 326 33 64 50 51 65 80 89 93 90 87 88 87 84 82 80 77 76 76 72 68 66 65 64 62 60 57 53 50 46 44 43 46 59 75 76 70 71 81 84 97 112 112 116 127 125 118 121 129 135 142 149 152 154 155 154 151 150 154 161 164 162 162 162 162 163 165 167 171 176 183 193 197 195 193 195 198 200 204 208 211 216 216 208
174 163 139 82 74 73 67 64 63 67 81 91 91 89 91 88 83 83 82 79 76 76 75 71 67 64 62 61 59 60 58 52 46 47 49 47 50 63 74 75 74 78 81 84 89 93 99 109 113 114 120 128 135 142 146 148 150 151 151 151 153 156 158 157 157 159 160 162 165 167 169 173 173 178 189 195 195 192 189 187 194 205 207 199 190 182 174
156 128 111 102 88 77 73 70 66 65 73 82 86 88 89 86 83 81 81 83 82 78 74 69 65 62 62 59 57 60 63 59 52 50 51 50 48 50 59 70 75 78 83 87 89 93 97 101 104 108 115 122 129 134 138 141 142 142 143 149 153 152 147 142 143 148 153 160 167 170 173 176 177 180 187 192 196 198 194 192 196 197 188 180 174 170 168
152 141 114 104 95 90 89 84 79 77 75 75 80 84 86 88 89 85 81 81 83 82 78 72 66 62 61 59 56 58 62 63 58 55 53 51 49 48 53 64 76 84 90 92 92 94 99 103 105 109 113 118 125 134 139 141 141 142 146 153 157 156 150 143 137 139 148 159 166 171 174 175 177 183 188 192 200 202 198 201 202 191 178 174 172 172 174
107 116 108 102 99 104 105 97 89 84 80 78 80 81 83 87 90 87 82 79 78 79 79 77 71 63 59 56 51 51 56 57 54 54 54 52 51 53 56 60 68 78 86 89 89 88 89 92 96 104 114 121 127 133 138 139 140 145 153 161 164 162 158 150 142 143 154 163 168 171 172 172 177 182 186 195 204 198 189 196 202 193 180 175 173 175 181
82 88 92 94 96 98 95 87 83 81 78 78 80 78 78 80 79 78 78 76 76 76 75 74 72 68 64 60 50 45 50 53 50 51 54 51 51 57 61 62 65 72 78 80 81 85 88 91 91 95 108 124 130 130 132 134 138 145 152 159 162 158 152 147 146 151 159 168 171 169 167 168 169 168 166 175 183 180 180 189 195 192 186 182 181 183 185
74 80 86 92 98 98 87 77 75 75 73 74 76 75 74 75 73 71 70 70 74 79 79 78 77 72 68 68 63 54 55 58 54 53 56 54 46 47 55 64 69 69 65 63 67 77 88 95 98 99 104 117 129 137 139 137 137 148 155 154 152 152 149 143 140 141 149 155 155 154 156 156 153 147 146 153 162 172 182 189 190 190 191 190 191 196 197
71 72 73 78 86 91 86 77 72 71 70 71 72 73 74 75 74 72 69 68 71 76 80 82 82 80 78 77 76 73 70 66 59 54 61 71 65 46 44 54 62 62 60 58 59 68 83 94 100 103 106 111 120 131 140 139 138 151 162 159 152 152 155 151 144 145 153 156 154 151 151 151 147 147 148 152 162 177 185 181 178 186 193 195 198 204 208
79 76 74 74 76 80 81 78 74 71 67 66 66 68 71 73 74 74 70 65 65 67 69 72 76 80 84 84 83 82 75 66 67 70 70 77 85 67 43 44 48 53 62 64 60 61 77 92 96 100 103 112 120 121 123 134 141 145 154 158 155 154 162 169 167 163 164 162 156 152 153 152 150 151 155 161 170 181 184 177 174 181 190 197 203 208 209
82 78 76 77 78 79 79 79 78 75 71 66 65 68 72 73 73 73 70 65 63 59 58 65 71 72 70 70 72 72 61 53 63 80 85 81 75 64 48 41 35 36 51 62 58 62 78 87 91 96 102 119 130 125 119 132 146 146 147 150 150 149 159 172 177 177 176 169 161 157 159 160 157 159 169 179 185 187 189 191 186 179 183 194 202 203 202
76 71 69 74 79 80 81 83 83 80 77 71 67 66 68 67 67 68 67 66 63 55 50 58 69 68 64 63 64 61 54 49 48 54 76 94 81 62 56 59 45 38 45 59 62 68 77 81 85 93 104 123 139 133 123 127 143 153 156 158 157 156 166 182 191 188 178 170 166 167 170 171 171 173 178 183 188 193 199 201 194 181 182 186 183 177 179
79 76 73 75 78 78 78 80 80 78 77 76 71 67 67 65 63 62 61 60 59 57 57 65 75 74 68 66 64 59 57 57 53 48 55 82 83 65 56 50 43 45 61 130 119 87 76 77 77 68 69 136 140 135 126 116 122 147 162 166 167 174 187 196 194 181 174 173 178 183 184 182 183 184 184 185 189 194 199 200 194 188 188 185 173 166 169
79 79 77 76 78 80 80 80 79 77 76 77 76 72 70 70 67 63 61 58 57 58 65 73 80 80 76 72 67 60 56 57 56 55 57 67 77 77 70 61 57 58 58 66 81 50 8 16 43 14 313 226 167 157 154 143 140 154 166 165 162 176 190 193 181 174 179 188 193 193 190 186 185 184 183 184 186 187 188 191 192 191 191 190 187 187 186
79 80 80 77 77 79 80 78 78 76 75 77 77 75 73 73 73 70 67 63 60 62 68 73 76 78 79 81 79 73 67 64 63 63 64 66 75 88 87 77 73 76 70 58 46 23 343 305 277 288 271 229 202 190 185 177 172 176 180 174 167 171 183 190 188 187 192 196 193 185 176 173 173 172 171 173 175 177 181 185 186 187 192 196 200 205 209
80 78 78 78 77 77 77 77 78 78 77 76 76 74 71 70 70 71 73 70 67 69 75 75 72 71 74 78 78 73 70 72 76 79 80 80 82 87 86 79 75 77 74 64 57 56 58 84 146 143 146 188 188 163 155 163 173 179 181 178 176 182 191 194 194 194 196 194 190 181 170 167 170 168 165 165 168 173 181 185 185 186 192 197 200 206 212
79 77 76 77 77 75 74 75 76 77 76 76 76 76 75 73 72 73 75 73 71 72 75 76 74 70 67 68 69 67 66 70 77 81 83 83 82 82 80 76 75 76 72 61 60 74 82 95 126 132 131 162 190 175 161 163 174 184 191 194 200 208 211 208 200 194 190 185 181 175 171 172 175 175 173 172 170 172 181 191 195 194 193 194 196 198 201
79 79 76 76 74 72 72 73 73 73 73 73 74 74 75 75 74 72 69 67 66 66 68 71 75 74 70 70 71 71 70 72 75 79 81 81 80 80 78 75 73 75 71 61 58 72 82 88 113 130 130 139 164 164 155 154 165 183 195 206 215 216 210 205 203 197 187 178 174 173 172 174 177 178 180 181 178 176 181 187 186 184 189 198 204 203 196
82 81 79 77 75 74 73 72 69 69 71 73 72 70 69 69 69 67 64 63 65 65 63 65 71 75 75 74 74 75 74 72 71 73 75 75 73 73 73 70 69 72 72 65 59 65 77 79 81 95 106 112 122 132 137 140 150 163 162 164 180 187 181 190 201 197 184 178 178 178 179 183 182 178 178 182 182 184 190 193 191 193 204 214 212 203 191
83 84 84 82 79 76 75 74 71 69 70 73 75 73 68 66 65 64 63 67 73 72 66 64 65 67 70 72 74 74 72 71 70 70 71 69 66 62 61 61 62 66 69 60 52 58 70 72 66 74 92 102 109 116 117 118 131 150 147 143 146 152 158 172 185 187 190 194 190 183 183 189 187 182 182 185 185 187 190 189 190 199 210 213 205 199 193
83 86 86 83 80 76 74 76 75 71 67 69 74 74 69 63 63 61 57 59 65 70 71 68 64 61 62 68 72 71 68 66 67 69 69 68 63 58 55 57 59 58 54 46 43 50 58 60 62 78 95 100 102 107 104 95 98 136 148 155 168 174 173 173 173 174 183 192 188 183 188 193 188 179 175 175 176 179 180 179 184 197 205 203 197 192 187
82 82 81 81 81 78 75 76 79 76 70 66 66 66 64 63 62 60 56 56 59 62 64 64 61 61 64 68 73 73 67 61 59 61 66 67 64 57 53 53 54 53 52 50 46 45 45 44 49 69 93 100 100 101 97 90 90 99 104 124 169 186 188 188 187 184 187 192 188 183 190 195 188 176 172 177 179 176 176 180 187 191 189 187 187 186 184
80 81 81 81 82 84 83 78 73 70 71 71 65 58 57 57 53 48 50 60 63 59 56 56 58 62 67 70 71 70 63 57 56 58 60 64 64 58 51 47 46 45 44 45 44 41 40 39 37 41 72 103 106 99 90 86 82 56 54 75 147 168 162 175 183 179 183 196 191 170 165 174 174 170 177 191 192 183 181 187 193 190 186 190 196 199 205
77 82 81 75 74 80 84 78 69 66 68 69 62 52 48 49 48 47 55 73 74 63 57 58 58 55 54 58 63 63 57 55 61 64 62 61 62 56 46 42 42 38 33 33 34 34 32 33 32 32 43 83 114 100 81 80 79 57 47 67 108 110 111 136 157 150 139 149 169 170 174 183 184 183 187 190 184 179 183 191 196 198 205 211 212 215 223
73 75 73 71 73 77 75 71 71 70 63 55 50 47 45 48 49 51 59 72 76 67 62 63 62 54 50 54 59 58 54 52 57 60 57 53 50 42 34 33 38 36 28 22 21 20 20 24 27 28 28 33 43 27 34 63 89 97 97 112 128 119 124 161 174 169 170 179 186 188 191 190 182 182 188 194 191 190 194 197 196 199 206 212 215 219 223
72 70 69 74 80 80 73 68 68 64 56 50 50 52 52 52 54 55 57 63 65 60 59 63 64 59 53 49 46 44 44 44 45 48 49 47 44 37 29 24 27 29 24 19 21 21 19 18 19 19 20 25 34 33 21 16 24 51 101 130 139 148 175 205 199 190 198 203 200 197 199 200 193 189 197 207 211 210 210 210 210 210 213 216 218 218 212
70 64 66 71 70 68 68 68 63 57 50 47 49 51 50 48 50 51 51 52 53 51 49 52 56 53 46 39 35 36 37 33 29 29 29 28 32 33 29 23 19 17 17 19 23 24 21 17 12 10 11 14 19 20 12 2 356 353 353 160 150 135 149 160 164 182 230 228 215 208 208 209 211 212 213 213 216 219 221 222 224 225 224 220 218 218 220
65 61 64 66 62 58 58 58 55 53 48 41 39 44 49 47 45 43 41 40 41 41 37 32 31 32 31 28 29 35 40 40 37 34 26 15 12 18 20 20 18 15 14 16 19 23 27 28 24 18 17 20 17 10 3 359 358 359 360 349 329 331 9 153 161 169 183 188 191 202 212 215 220 227 229 226 228 234 236 233 228 224 222 222 224 228 235
67 65 66 65 61 58 57 54 50 49 46 41 41 50 56 52 46 42 38 37 38 37 31 23 18 20 19 14 10 12 17 25 32 32 25 15 9 11 13 14 13 11 12 16 20 22 30 37 37 32 33 35 29 21 19 23 33 33 25 12 347 323 307 259 205 201 211 210 202 202 207 209 213 220 223 224 227 232 236 236 232 228 226 230 236 239 237
74 76 74 67 61 59 60 57 51 46 45 48 54 60 58 50 43 38 34 32 29 25 22 18 17 19 19 11 3 358 355 354 1 13 15 13 17 25 26 22 18 17 24 35 31 19 18 26 34 36 36 37 33 28 24 18 9 0 353 333 321 321 312 282 255 247 253 255 253 251 248 238 228 224 224 223 226 229 226 222 223 226 228 232 239 242 239